Flag for Norway Weather past 2 weeks in Finse, Norway

Now
36 °F

Chilly.


Feels Like: 32 °F
Forecast: 34 / 36 °F
Wind: 5 mph from Southwest

Location: Finsevatn

Current Time: Oct 25, 2014 at 11:30:35 AM

Latest Report: Oct 25, 2014 at 10:00 AM


Visibility: N/A

Pressure: 29.71 "Hg

Humidity: 81%

Dew point: 31 °F

Location of FinseLocation

Historic Weather in Finse — Graph

°F

Finse temperature yesterday

Maximum temperature yesterday: 45 °F (at 12:00 PM)
Minimum temperature yesterday: 37 °F (at 11:00 PM)
Average temperature yesterday: 40 °F

Past Weeks' High & Low Weather Summary

 TemperatureHumidityPressure
High46 °F (Oct 19, 3:00 PM)96% (Oct 12, 2:00 AM)30.09 "Hg (Oct 12, 2:00 AM)
Low26 °F (Oct 14, 8:00 AM)66% (Oct 14, 1:00 PM)29.26 "Hg (Oct 19, 9:00 PM)
Average35 °F89%29.77 "Hg
* Reported Oct 10 10:00 AM — Oct 25 10:00 AM, Finse, Weather by CustomWeather, © 2014

Note: Actual official high and low records may vary slightly from our data, if they occured in-between our weather recording intervals... More about our weather records

Advertising

Finse weather history for previous 24 hours

 ConditionsComfort  
Time TempWeatherWind HumidityBarometerVisibility
10:00 AM
Oct 25
36 °FChilly.5 mph81%29.71 "HgN/A
9:00 AM36 °FChilly.3 mph77%29.71 "HgN/A
8:00 AM36 °FChilly.3 mph81%29.70 "HgN/A
7:00 AM35 °FChilly.5 mph91%29.70 "HgN/A
6:00 AM35 °FChilly.5 mph89%29.70 "HgN/A
5:00 AM36 °FChilly.3 mph84%29.68 "HgN/A
4:00 AM36 °FChilly.2 mph83%29.68 "HgN/A
3:00 AM36 °FChilly.6 mph84%29.68 "HgN/A
2:00 AM35 °FChilly.2 mph86%29.69 "HgN/A
1:00 AM36 °FChilly.3 mph86%29.70 "HgN/A
12:00 AM36 °FChilly.6 mph88%29.72 "HgN/A
11:00 PM
Oct 24
37 °FChilly.2 mph80%29.72 "HgN/A
10:00 PM38 °FChilly.5 mph77%29.72 "HgN/A
9:00 PM38 °FChilly.12 mph75%29.70 "HgN/A
8:00 PM40 °FChilly.10 mph78%29.69 "HgN/A
7:00 PM41 °FQuite cool.8 mph76%29.67 "HgN/A
6:00 PM38 °FChilly.3 mph88%29.70 "HgN/A
5:00 PM40 °FChilly.5 mph83%29.70 "HgN/A
4:00 PM41 °FQuite cool.9 mph81%29.69 "HgN/A
3:00 PM42 °FQuite cool.12 mph81%29.68 "HgN/A
2:00 PM44 °FQuite cool.12 mph79%29.67 "HgN/A
1:00 PM44 °FQuite cool.13 mph80%29.68 "HgN/A
12:00 PM45 °FQuite cool.9 mph80%29.67 "HgN/A
11:00 AM42 °FQuite cool.8 mph88%29.69 "HgN/A
Weather by CustomWeather, © 2014

See weather overviewHow to use our weather pages